Theta_e
315 312 316 319 324 323 328 330 331 331 331 328 325 335 337 333 332 335 346 351 352 358 351 353 351 345 340 339 338 336 334 332 334 337 337 333 327 327 327 328 325 330 332 333 338 339 339 340 339
316 316 317 320 320 322 324 327 328 330 326 324 325 326 327 330 336 343 344 350 349 359 360 353 350 345 340 339 339 337 334 331 329 335 336 331 328 329 326 326 323 326 333 337 341 342 341 338 329
314 318 320 322 322 321 323 323 324 325 323 323 325 323 324 334 335 338 339 350 351 360 359 353 349 345 341 339 339 337 333 328 325 329 332 329 327 329 326 325 322 328 333 337 335 334 333 330 329
320 319 318 322 323 323 322 322 321 323 322 322 322 325 329 334 337 342 347 355 352 359 360 355 348 345 342 339 338 336 331 326 321 325 327 325 325 327 326 323 325 330 332 329 328 330 329 328 328
319 319 321 322 322 323 321 321 321 322 322 322 321 324 323 329 336 340 349 357 355 357 361 356 348 345 342 340 338 336 332 325 320 323 324 323 325 326 325 322 326 330 330 328 326 326 323 321 321
318 320 321 321 322 322 323 321 321 322 322 321 321 322 324 321 333 340 348 357 356 357 359 357 349 345 342 339 338 337 331 327 321 319 321 323 324 325 326 321 325 328 329 328 326 324 322 323 323
319 320 320 320 321 322 322 320 322 322 322 322 321 322 322 321 329 336 345 355 356 358 360 358 350 345 341 339 338 335 330 328 323 319 321 323 324 325 324 321 325 327 327 326 329 323 324 324 323
318 321 319 320 320 321 323 319 319 320 321 319 319 323 322 319 325 334 340 352 357 356 358 356 356 347 342 340 338 333 330 329 324 320 321 322 324 324 322 324 326 327 325 329 327 323 324 323 323
315 318 318 320 320 320 320 319 318 316 317 317 318 319 319 318 321 326 338 348 355 358 356 356 357 353 347 344 339 334 331 330 326 323 322 323 328 322 324 329 331 328 330 327 325 324 323 323 322
315 316 317 318 318 318 316 316 316 316 316 317 317 317 317 317 319 322 324 335 348 353 352 355 353 355 350 347 341 336 332 331 329 327 323 331 339 338 339 336 330 328 325 324 323 323 323 322 333
314 316 316 315 315 315 316 316 315 316 317 316 317 317 316 317 317 319 321 327 333 346 352 354 354 354 353 349 346 344 342 342 340 338 329 339 342 343 342 340 329 329 325 336 332 331 330 336 338
316 315 315 316 315 315 316 315 315 315 316 315 316 315 316 316 317 317 319 321 326 338 349 352 353 352 354 351 349 347 345 345 344 344 334 343 338 343 341 340 339 340 338 339 338 337 339 340 343
315 315 314 314 314 314 314 314 315 314 314 314 315 315 315 316 316 317 317 320 323 331 344 350 352 352 353 352 350 348 346 344 343 342 334 342 339 342 341 340 338 338 338 338 339 341 342 343 344
314 314 314 314 314 315 315 315 314 313 312 313 314 316 316 316 316 316 316 318 323 326 334 347 349 351 351 352 351 348 346 345 343 343 341 329 333 341 340 340 337 337 339 340 341 343 345 345 346
315 316 316 316 315 315 315 316 316 315 314 315 315 315 316 317 316 316 316 317 318 325 326 327 351 351 351 350 348 347 343 346 344 343 342 330 330 335 338 338 336 339 342 340 342 345 346 346 346
316 316 316 317 316 316 316 318 318 317 317 317 316 316 316 316 316 315 315 317 317 322 324 320 346 352 350 350 348 346 348 347 345 344 339 330 327 324 325 336 337 344 343 345 346 346 345 345 345
317 318 317 317 317 317 317 318 318 317 317 317 318 317 316 316 316 315 315 317 318 319 324 319 339 350 350 351 349 348 347 346 345 340 335 329 327 323 324 333 343 342 345 345 346 345 341 345 345
317 316 317 317 317 317 317 318 318 317 317 317 317 318 318 317 317 316 316 317 318 319 319 325 325 345 351 349 349 350 348 342 339 336 334 329 326 322 321 337 345 343 345 345 344 343 343 344 343
316 316 317 317 317 317 318 319 319 318 318 318 318 318 318 318 316 317 317 316 318 319 317 315 325 322 346 349 351 348 348 346 338 337 334 331 326 322 326 341 340 339 344 344 338 342 339 342 339
315 317 317 317 317 318 318 320 320 320 319 318 318 318 318 318 318 317 317 316 318 320 321 328 333 335 341 350 349 351 350 346 341 337 335 332 328 325 336 345 343 340 344 342 340 338 342 338 336
316 317 318 317 317 318 320 321 320 319 319 319 319 319 318 318 318 317 317 316 317 318 321 325 335 342 345 347 348 349 349 348 345 341 339 334 329 326 344 340 346 338 343 344 340 337 339 338 328
317 316 316 317 319 320 319 320 320 320 320 320 319 319 319 319 318 318 318 317 317 318 319 324 334 340 343 344 347 348 348 347 344 340 338 334 330 334 342 338 342 338 342 339 338 338 332 331 332
315 316 318 318 319 319 319 320 320 321 320 320 318 318 318 318 318 318 317 317 318 317 318 322 332 340 342 341 344 344 346 347 343 342 339 334 333 342 337 339 338 340 339 338 337 330 328 326 324
317 317 316 317 318 321 320 321 320 320 320 319 319 318 317 316 317 317 317 317 317 317 318 319 328 338 339 341 343 345 343 347 345 344 341 338 337 337 340 340 339 340 339 337 331 328 325 323 322
316 317 321 322 321 324 320 320 320 320 319 319 319 318 318 317 317 317 317 317 317 317 318 319 324 335 338 343 343 345 345 346 344 339 336 335 338 337 342 342 341 338 335 331 328 327 326 325 324
314 315 320 322 321 321 319 320 320 318 317 317 317 318 317 318 319 319 319 318 318 318 318 319 324 332 337 339 342 346 348 347 347 340 337 336 340 341 340 342 339 336 334 329 328 328 326 326 325
318 318 317 324 320 321 319 319 318 318 318 319 319 318 319 319 319 319 320 320 320 320 320 320 321 330 336 332 342 344 347 345 344 339 337 340 341 337 336 338 333 333 332 330 331 326 325 323 315
315 315 320 321 322 321 319 319 319 318 317 318 319 319 319 319 318 318 318 319 320 322 322 321 321 326 335 336 340 343 345 345 342 340 339 339 341 339 339 335 334 333 332 329 326 324 319 313 312
316 316 316 318 320 322 321 319 319 317 317 318 318 318 318 318 317 318 318 318 318 320 321 322 320 324 331 334 332 342 347 345 341 340 341 340 339 339 335 335 334 332 330 324 321 317 313 312 311
315 316 317 323 320 321 323 322 318 317 317 317 317 316 316 316 317 317 317 318 318 318 320 322 323 323 331 335 336 340 344 343 339 335 334 340 340 337 336 333 331 330 325 321 317 313 312 311 310
Wind_Speed
2 3 4 4 7 6 14 8 5 7 7 1 5 8 10 11 8 4 11 7 3 11 21 27 28 26 24 21 19 19 17 14 15 15 13 13 14 14 14 14 15 16 16 14 12 11 10 8 6
3 4 4 4 8 12 12 8 12 3 4 8 8 8 9 4 13 5 11 16 6 12 20 30 29 28 24 21 18 17 16 12 13 15 14 14 14 14 14 13 14 15 14 12 10 9 8 7 6
5 7 8 5 9 13 12 7 8 3 3 4 5 3 6 5 12 12 16 15 5 13 20 29 30 29 25 22 19 16 15 12 13 15 14 14 14 13 13 14 15 16 13 10 8 7 7 7 7
4 5 5 9 13 11 8 4 1 5 5 2 5 5 4 6 12 15 17 9 4 13 19 27 30 29 25 22 19 16 14 12 13 15 15 14 14 13 14 14 15 15 12 9 7 7 7 7 7
5 5 9 12 15 6 3 4 5 6 5 6 5 3 6 5 11 14 14 8 4 13 17 23 30 28 24 22 19 15 13 12 13 14 15 15 15 14 14 14 15 13 11 8 7 6 6 6 6
8 6 10 14 15 9 6 3 8 6 6 7 6 10 4 6 13 15 14 6 3 12 17 22 31 28 24 22 18 15 13 13 13 14 15 15 15 15 14 15 15 12 10 8 7 6 6 7 7
12 8 15 15 9 10 7 1 3 7 7 10 7 8 5 8 13 13 12 9 6 11 17 18 29 28 25 22 18 15 13 13 13 14 14 15 15 15 14 14 13 11 9 8 8 8 7 7 8
7 6 8 11 11 16 7 5 2 8 11 8 10 5 4 13 13 11 10 7 2 12 15 18 21 27 25 23 20 17 15 13 13 13 14 15 15 14 14 14 13 11 10 9 9 9 9 9 9
4 7 11 13 10 11 3 10 5 4 15 16 13 14 15 12 10 9 9 5 2 8 15 17 22 22 21 21 23 19 17 15 14 14 14 14 14 15 15 14 13 11 10 11 11 10 10 9 9
6 7 7 7 5 9 10 14 14 11 12 13 17 14 10 10 9 9 8 5 2 10 16 16 23 23 23 20 24 22 20 17 15 15 16 14 13 13 12 13 12 11 11 10 9 9 8 7 5
2 7 2 4 4 8 12 16 16 14 14 12 11 16 14 13 10 9 7 5 3 7 14 21 24 25 23 21 20 18 18 16 16 15 16 13 13 13 13 10 11 10 10 5 7 7 6 7 6
9 3 6 4 9 11 14 17 20 21 19 15 14 17 19 15 13 11 10 7 6 7 12 20 21 26 22 21 21 19 18 17 16 16 17 15 14 12 12 11 9 9 7 8 6 5 7 6 6
9 2 7 10 15 17 16 20 22 26 23 21 19 17 19 19 17 14 11 9 8 8 12 19 21 26 24 24 21 20 19 18 17 17 18 15 13 13 12 12 10 9 9 6 6 6 6 6 6
3 9 13 13 14 11 13 15 15 19 22 23 18 19 19 22 22 20 16 14 12 11 12 17 21 27 25 24 24 24 21 19 19 16 17 18 15 14 12 12 10 8 7 7 6 6 6 7 8
10 13 11 8 8 12 11 18 22 18 16 17 22 20 19 20 23 24 21 20 17 14 14 15 23 25 29 27 26 24 24 20 19 17 18 18 17 16 14 12 11 9 8 10 6 6 6 6 5
11 10 10 5 7 9 8 19 18 8 15 19 23 24 22 20 19 24 22 18 17 17 17 16 20 27 29 29 27 28 21 21 20 18 17 18 18 17 16 11 10 9 8 8 7 5 5 5 7
11 9 14 13 7 14 12 19 14 9 19 24 24 24 24 21 19 19 20 17 14 14 17 18 19 26 28 28 26 26 26 23 20 20 18 19 18 17 15 13 12 12 7 7 8 6 6 7 8
16 17 16 17 12 16 20 24 22 25 25 26 25 25 24 24 22 18 20 20 15 14 17 20 21 23 27 27 29 24 23 26 25 23 22 19 18 16 16 13 13 11 9 8 8 9 6 8 10
15 18 20 19 16 17 20 24 25 25 27 26 28 28 27 26 24 20 21 21 18 14 15 21 23 26 28 30 32 30 27 26 29 26 24 19 18 17 17 13 14 12 11 10 10 8 8 9 11
18 20 21 19 16 16 23 28 25 23 26 30 28 28 27 26 25 24 22 22 19 16 15 16 21 23 27 36 32 27 26 25 28 27 24 21 17 19 17 13 13 12 9 11 10 8 6 7 6
19 19 20 20 20 20 22 24 17 4 9 15 18 21 24 26 25 25 24 23 21 18 14 14 18 21 27 29 32 31 25 21 22 25 24 22 19 21 17 16 12 14 11 8 10 9 9 7 1
20 16 18 18 16 13 15 11 18 12 12 8 8 12 15 21 24 24 25 25 24 22 17 13 15 21 24 32 29 32 28 28 28 31 27 22 20 21 18 16 15 14 12 9 10 10 7 7 3
19 9 14 16 18 20 19 12 8 6 8 5 5 2 10 12 19 25 27 26 24 23 21 16 13 17 24 27 32 31 27 27 24 27 29 25 25 21 20 20 17 15 13 10 6 6 5 4 0
6 12 18 21 16 13 15 14 8 4 7 3 10 7 4 3 7 16 21 22 24 24 22 20 17 16 25 27 32 33 30 29 32 29 26 29 26 25 24 25 22 17 10 7 7 5 2 3 6
10 12 8 5 6 9 5 9 13 12 15 10 6 7 7 9 10 10 14 19 21 21 22 19 19 18 22 27 31 31 30 32 34 33 33 31 29 32 27 23 17 15 13 11 8 6 2 5 9
19 13 6 6 9 13 11 8 1 4 8 8 10 14 8 4 3 5 8 11 13 15 16 18 19 20 19 26 32 31 31 30 28 31 34 33 34 32 27 25 23 16 14 11 5 2 6 10 10
2 6 9 6 17 10 9 12 12 8 5 6 6 2 2 1 2 3 5 7 9 11 14 15 17 18 18 22 28 33 35 33 28 33 32 40 38 35 36 28 21 19 14 9 4 4 6 6 3
15 7 7 5 5 8 8 12 9 6 1 3 4 2 1 3 6 6 7 8 9 10 9 10 17 18 19 20 26 33 37 32 38 36 36 36 37 38 35 28 22 15 11 9 8 5 3 1 2
4 11 8 8 8 7 13 4 7 3 8 5 7 2 7 10 13 14 14 13 12 11 11 10 14 19 18 18 26 32 39 37 40 34 33 34 38 36 30 27 21 18 15 12 7 5 4 4 4
16 17 15 8 10 11 14 15 11 5 5 1 4 9 15 20 23 23 22 19 16 14 13 11 12 18 19 17 22 29 43 38 37 39 34 35 41 36 29 26 23 19 17 13 9 6 6 5 6
Wind_Direction
234 194 181 209 237 232 247 222 294 215 207 39 301 264 337 337 351 16 350 31 275 197 196 186 185 183 183 181 176 173 173 180 185 181 173 164 163 169 168 165 164 164 160 160 167 170 168 178 197
183 160 190 231 250 232 235 221 223 153 346 303 285 266 258 70 26 337 347 341 314 193 191 192 187 186 185 183 181 178 178 188 190 185 177 171 170 171 167 166 166 169 166 168 170 174 181 194 202
154 166 230 233 241 250 257 139 245 208 303 303 295 321 331 28 347 341 325 324 258 194 190 191 187 188 188 187 185 183 184 193 193 188 183 177 174 173 170 169 169 170 170 172 177 184 195 204 212
175 200 233 243 234 247 284 122 277 248 203 245 328 250 105 43 354 343 336 331 222 195 186 198 190 189 190 189 186 187 190 199 194 191 185 181 177 177 175 174 170 171 171 170 172 185 202 217 224
190 227 238 239 244 242 215 247 259 264 254 254 320 267 298 7 352 352 352 340 222 195 191 205 192 191 192 191 189 191 196 199 194 192 186 182 181 180 178 177 175 178 178 180 189 200 211 222 228
210 267 234 235 220 240 226 251 268 241 265 270 272 302 274 348 357 357 359 2 208 192 189 209 190 192 192 192 194 196 197 200 192 190 188 184 184 180 181 182 181 184 188 195 201 215 221 232 244
260 232 251 263 264 240 225 314 225 275 262 268 325 286 291 339 345 355 359 6 164 189 186 197 186 191 192 191 195 199 198 198 192 188 187 186 186 185 184 186 188 192 198 202 212 218 235 244 252
261 261 247 237 234 246 142 264 214 254 279 291 279 260 298 331 337 346 1 2 206 184 179 185 183 188 191 191 194 195 194 196 192 186 187 187 188 188 188 191 198 201 204 211 222 230 239 251 260
229 249 249 247 233 245 251 281 244 259 276 279 272 274 292 310 325 337 353 8 241 182 190 190 183 184 181 186 193 194 194 193 191 187 190 189 187 189 190 195 208 205 209 216 224 234 246 259 265
253 255 273 354 327 271 288 289 291 289 259 267 278 268 271 297 312 320 325 334 306 221 204 189 188 185 182 183 192 192 195 190 187 191 192 184 186 180 183 208 202 207 216 224 236 251 259 260 263
192 277 81 229 281 276 294 289 286 279 271 261 272 285 282 287 285 303 301 302 297 250 224 196 206 177 189 185 179 180 182 186 189 191 196 185 191 196 187 200 205 211 225 239 273 267 269 254 243
255 222 249 254 275 267 269 283 278 276 276 276 264 281 279 275 277 283 280 282 271 247 227 212 201 192 184 191 180 185 182 186 189 193 200 197 201 202 194 200 199 201 220 227 247 251 243 245 264
252 200 255 266 278 274 272 262 265 271 274 269 265 265 269 273 270 274 272 272 261 240 223 224 215 198 190 187 185 186 188 190 193 198 207 202 200 205 205 208 202 203 216 240 236 238 247 260 280
350 285 279 272 271 282 276 270 251 260 262 267 269 266 264 269 270 267 264 266 257 243 228 216 221 218 201 194 190 194 190 195 195 199 205 214 206 208 208 209 211 211 217 220 222 239 245 265 271
286 273 281 236 241 286 289 269 244 252 260 262 273 264 263 263 269 263 262 263 254 245 235 232 219 214 215 204 201 200 201 197 198 198 206 209 208 212 199 204 204 204 205 210 226 252 259 264 265
268 269 261 163 297 285 247 278 292 211 255 265 271 269 264 261 262 260 259 257 244 238 233 238 214 214 216 210 208 204 199 199 197 195 208 209 215 214 208 204 199 209 201 209 225 236 247 254 268
203 282 297 292 239 288 258 280 290 254 267 276 269 267 262 261 257 251 244 247 246 242 233 226 213 213 215 211 210 206 204 199 200 203 206 211 213 215 205 192 203 204 204 209 217 229 241 262 275
316 300 298 295 305 288 278 274 277 275 267 264 265 263 260 256 251 244 232 240 242 248 241 227 222 215 215 211 212 201 203 203 204 208 210 208 209 208 204 193 196 204 208 213 224 216 243 257 272
294 287 286 288 296 291 282 282 281 275 266 263 259 254 255 251 247 241 235 234 243 242 255 236 225 223 214 212 206 203 200 198 203 204 210 207 202 198 193 191 207 210 212 209 222 232 262 265 287
280 282 281 289 292 299 294 284 285 274 265 262 259 256 250 251 244 236 234 232 239 248 245 242 231 227 214 213 209 202 201 200 203 202 204 200 197 197 192 188 199 200 207 207 221 241 239 258 289
273 279 293 298 302 282 276 288 269 214 245 253 257 255 253 249 244 235 231 231 236 243 248 244 233 224 212 210 210 200 193 195 188 187 195 193 196 194 188 187 193 202 196 207 233 246 245 236 231
283 291 304 291 285 288 322 289 293 300 283 284 270 247 246 239 236 235 231 231 234 235 242 243 233 225 222 203 204 206 191 190 192 195 192 188 192 189 191 192 204 201 197 219 248 255 215 203 153
285 313 286 287 281 285 274 258 291 219 279 113 60 327 247 246 239 233 229 229 233 239 238 234 230 222 225 213 204 208 198 199 189 194 183 180 183 189 193 195 204 199 207 219 225 222 210 192 164
315 272 291 271 262 268 269 239 276 271 1 306 328 279 243 287 235 235 235 231 232 237 240 239 228 219 221 218 209 208 203 192 187 179 173 182 184 189 194 199 196 193 197 190 174 149 133 357 13
246 303 304 283 185 251 93 290 267 293 299 309 306 309 289 247 255 245 227 228 231 236 237 235 227 222 215 211 208 200 197 196 193 191 188 190 189 193 193 197 192 182 184 182 162 123 343 5 343
291 286 263 302 292 313 308 263 360 294 319 307 297 277 272 267 236 246 252 246 242 238 243 237 223 225 217 209 210 203 200 197 189 195 200 203 186 189 191 198 190 191 187 161 180 344 312 319 314
283 228 271 278 258 262 238 250 236 246 226 84 21 53 162 254 293 299 295 275 263 257 255 244 226 225 228 224 214 207 199 196 188 196 200 196 192 193 198 188 195 180 177 196 258 228 243 282 290
247 295 250 228 266 267 268 290 266 169 82 102 99 91 196 290 304 305 303 302 298 283 270 257 233 228 226 226 216 211 204 194 194 190 191 195 195 194 188 184 182 187 195 188 189 203 211 198 72
238 246 245 272 271 270 290 298 54 285 294 321 310 272 301 306 300 303 306 306 306 294 279 281 243 229 227 226 217 214 199 190 185 184 189 185 205 191 191 185 183 186 177 167 162 169 152 100 71
264 250 250 249 255 251 279 276 302 309 292 13 262 273 295 303 296 290 291 293 300 297 279 275 260 225 224 225 221 214 191 179 183 191 191 206 192 181 182 179 169 170 160 158 165 141 115 91 57